Hourly Data Report for October 08, 2014

All times are specified in Local Standard Time (LST). Add 1 hour to adjust for Daylight Saving Time where and when it is observed.

GJOA HAVEN A
NUNAVUT

68°38'08.000" N
95°51'01.000" W
46.90 m
2302337
71597
YHK

Download Data

Hourly Data (October 2014)
Hourly Data Report for October 8, 2014
Temp Definition
°C
Dew Point Temp Definition
°C
Rel Hum Definition
%
Wind Dir Definition
10's deg

Wind Spd Definition
km/h
Visibility Definition
km
Stn Press Definition
kPa
Hmdx Definition


Wind Chill Definition


Weather Definition


TIME
00:00 Legend Double Dagger -1.4 -2.1 95 9 34 16.1 101.93   -9 LegendNANA
01:00 Legend Double Dagger -1.5 -2.1 96 9 30 16.1 101.95   -8 LegendNANA
02:00 Legend Double Dagger -2.1 -2.5 97 8 32 12.9 101.96   -9 LegendNANA
03:00 Legend Double Dagger -2.1 -2.4 98 9 30 11.3 101.95   -9 LegendNANA
04:00 Legend Double Dagger -2.6 -2.9 98 8 32 12.9 101.98   -10 LegendNANA
05:00 Legend Double Dagger -2.8 -2.9 99 8 32 11.3 102.00   -10 LegendNANA
06:00 Legend Double Dagger -2.5 -2.8 98 9 28 12.9 102.04   -10 LegendNANA
07:00 Legend Double Dagger -2.3 -2.9 96 9 32 16.1 102.04   -10 LegendNANA
08:00 Legend Double Dagger -2.3 -2.8 96 9 30 16.1 102.05   -9 LegendNANA
09:00 Legend Double Dagger -2.0 -2.7 95 10 30 16.1 102.07   -9 LegendNANA
10:00 Legend Double Dagger -1.9 -2.7 94 10 24 16.1 102.08   -8 LegendNANA
11:00 Legend Double Dagger -2.2 -3.0 94 11 28 16.1 102.09   -9 LegendNANA
12:00 Legend Double Dagger -2.6 -3.4 94 11 26 16.1 102.11   -9 LegendNANA
13:00 Legend Double Dagger -2.7 -3.4 95 11 28 16.1 102.13   -10 LegendNANA
14:00 Legend Double Dagger -3.1 -3.3 99 11 21 12.9 102.15   -9 LegendNANA
15:00 Legend Double Dagger -3.8 -3.8 100 10 24 0.4 102.13   -11 Heavy Snow
16:00 Legend Double Dagger -3.8 -3.8 100 9 18 0.2 102.15   -10 Heavy Snow
17:00 Legend Double Dagger -3.8 -3.8 100 10 21 0.2 102.15   -10 Heavy Snow
18:00 Legend Double Dagger -4.0 -4.0 100 9 18 0.6 102.16   -10 Freezing Fog
19:00 Legend Double Dagger -3.9 -3.9 100 11 15 0.6 102.17   -9 Freezing Fog
20:00 Legend Double Dagger -4.2 -4.3 99 9 15 6.4 102.17   -10 Fog
21:00 Legend Double Dagger -4.1 -4.2 99 12 11 16.1 102.17   -9 LegendNANA
22:00 Legend Double Dagger -4.5 -4.8 98 10 9 16.1 102.19   -8 LegendNANA
23:00 Legend Double Dagger -4.8 -4.9 99 11 11 8.1 102.19   -9 Fog

Notes on Data Quality.

Legend

  • E = Estimated
  • M = Missing
  • NA = Not Available
  • ‡ = Partner data that is not subject to review by the National Climate Archives
Date modified: